triamax.com

Festejo 10 corriendo 21

Posteado por on sep 17th, 2012 and filed under Atletismo, Carreras, Noticias, Resultados. Podés seguir estos comentarios a través de RSS 2.0. Dejá un comentarios o hacé referencia al post desde tu sitio.

Puesto#CategoríaApellido y NombreLocalidadTiempo
130330-34 MaleGarcia, HernanPergamino1:11:19.7
23225-29 MaleMisiewicz, MarcosPergamino1:11:36.9
3130-34 MaleRecouso, DiegoPergamino1:13:43.4
425330-34 MaleEscandar, MarcosJunin1:18:05.0
521840-44 MaleCotron, VictorLos Toldos1:19:16.4
627525-29 MaleAcosta, GonzaloZarate1:19:44.5
72030-34 MaleFoster, PatricioPergamino1:19:44.7
821945-49 MaleNogueira, AdrianJunin1:19:54.4
923520-24 MaleCarnevale, AgustinOrdoñez1:21:10.9
1023130-34 MalePanier, HernanBuenos Aires1:21:44.6
1120940-44 MaleCastro, Jose JavierCapitan Sarmiento1:22:27.5
1225235-39 MaleGiordano, MarceloJunin1:22:58.4
137235-39 MaleMoreyra, HernanSan Nicolas1:24:10.9
1412635-39 MaleGarcia, CristianPergamino1:24:25.4
153850-54 MaleÑañez, SergioSalto1:24:41.6
1626330-34 MaleRomero, Lucas RafaelZarate1:24:48.6
1714445-49 MaleBanegas, MarceloPergamino1:24:59.7
1821020-24 MaleLencina, Juan ManuelCasilda1:25:58.6
195430-34 MaleLavitola, LeandroRosario1:26:05.2
2012445-49 MaleAlonso, GuillermoColon1:26:19.7
2130235-39 MaleBarcelo, PablomRosario1:26:36.4
2219535-39 MaleToledo, Guillermo9 De Julio1:27:01.7
23835-39 MaleLavie, FabianCañada De Gomez1:27:35.5
249335-39 MaleStoppo, WalterSan Nicolas1:28:07.0
255530-34 MaleRosas, GonzaloRosario1:28:36.7
2617240-44 MalePico, PabloPergamino1:28:43.5
27535-39 MaleQuinart, JavierVilla Cañas1:29:05.1
2829030-34 MaleUllua, SergioVenado Tuerto1:29:12.8
292540-44 MaleMarzano, Victor ClaudioSalto1:29:13.2
3022440-44 MaleProvinciali, DaniloRojas1:29:16.0
3122940-44 MaleDelgado, SergioVilla Mercedes1:29:21.6
325935-39 MaleGomez, CarlosVilla Constitucion1:29:28.6
334215-19 MaleBianquie, PauloPergamino1:29:32.5
346530-34 MaleRaguza, IvanRosario1:30:07.8
3511420-24 MaleBazan, LuisPergamino1:30:26.8
3628945-49 MaleSalinas, MarceloVenado Tuerto1:30:42.8
3717530-34 MaleEscamilla, GuillermoPergamino1:31:05.7
3818430-34 MaleLavezzari, EmilioPergamino1:31:18.0
397525-29 MaleVillagra, RomanCasilda1:31:32.7
4030555-59 MaleColtrinari, WalterSan Jose De La EsQ.1:31:37.2
4122530-34 MaleBongiovanni, FernandoPergamino1:31:38.5
4226635-39 MaleFernandez, LuisVenado Tuerto1:31:50.1
439930-34 MaleLedesma, MarioVilla Constitucion1:32:02.4
4423440-44 MaleTeruya, Juan PabloRosario1:32:02.6
4517135-39 MaleBenetti, OscarPergamino1:32:44.7
464650-54 MaleSandoval, DanielLanus1:32:47.1
479825-29 MaleChavez, GabrielVilla Constitucion1:34:00.6
486425-29 MaleMartinez, FedericoRosario1:34:15.9
4914335-39 MaleGarcia, MarianoPergamino1:34:18.4
5016035-39 MaleTassarolo, DanielPergamino1:34:31.9
518350-54 MalePiccin, HugoFighiera1:34:43.1
5229350-54 MaleDelari, Juan AlbertoVenado Tuerto1:34:59.7
5330135-39 MaleDinatale, CristianPergamino1:35:12.2
547135-39 MaleVelazquez, SergioVilla Constitucion1:35:14.5
5510030-34 FemaleBerzaghi, AndreaRojas1:35:25.3
5628530-34 MaleVelasco, Luciano ArielJunin1:35:32.4
5729140-44 MalePuente, Silvio1:35:50.7
587345-49 MaleRamos, GustavoRosario1:36:00.6
593140-44 MaleMolina, FabianPergamino1:36:08.6
608745-49 MaleCuixart, FabianRosario1:36:22.0
6112940-44 MaleAlfaro, GustavoPergamino1:36:49.7
628540-44 MaleCastellano, JorgeCaP. Bermudez1:37:13.8
6319835-39 FemaleUruzul, MaritzaPergamino1:37:15.2
6428845-49 MalePose, ClaudioJunin1:37:15.7
6522245-49 MaleGreco, EdgarJunin1:37:52.4
664325-29 MalePereira Caballero, EderliPergamino1:38:02.6
6720730-34 MaleAronna, LucianoAlberti1:38:20.5
6816415-19 MaleGonzalez, RodrigoPergamino1:38:30.5
69245-49 MaleAlonso, RicardoJunin1:38:37.4
7019225-29 MaleJaume, RenzoPergamino1:38:45.4
7116645-49 MaleQuiroga, CarlosRojas1:38:49.8
7216945-49 MaleDiaz, Leonardo WalterPergamino1:38:53.8
7330430-34 FemaleBentancurt, Vanessa9 De Julio1:38:54.4
7428035-39 MaleLeppera, Martin9 De Julio1:38:54.5
751750-54 MaleDuarte, RicardoPergamino1:38:55.2
7610150-54 MaleMesuro, HugoPergamino1:39:21.3
779520-24 MaleHoyos, SebastianRosario1:39:24.1
7813740-44 MaleBoveri, Jose LuisPergamino1:39:43.3
7926830-34 MaleD ´órazio, ArielRosario1:39:46.3
804845-49 MaleSantillan, DanielRemedios De Escalada1:39:48.9
8126220-24 MaleQuiroga, AndresColon1:40:12.1
8225435-39 MaleBencardini, Juan DomingoColon1:40:12.2
8323950-54 MaleMaiorano, EdgardoRosario1:40:12.6
8413350-54 MaleBortel, RicardoPergamino1:40:17.0
8519345-49 MaleDominicci, WalterAcevedo1:40:23.0
8610440-44 MaleRoldan, CarlosPergamino1:40:34.4
8728440-44 MaleFerreira, AlbertoCaba1:40:38.4
8821125-29 MaleRubicini, NicolasVilla Constitucion1:40:40.2
8913425-29 MaleFernandez, Pablo LucianoPergamino1:40:41.5
909440-44 MaleAsfur, CarlosZavalla1:40:45.1
91340-44 MaleOtal, CristianVilla Cañas1:40:47.1
9216350-54 MaleCottet, RobertoPergamino1:40:48.9
933630-34 MaleLabbate, MarceloPergamino1:40:59.8
9423730-34 MaleVeutro, AlejandroArroyo Seco1:41:02.0
955045-49 MaleVillareal, PabloLanus1:41:14.7
9617845-49 MaleDevito, OsvaldoPergamino1:41:16.6
9727730-34 FemaleVigo, Maria LauraLomas Del Mirador1:41:17.1
9827645-49 MaleMirochnik, GuillermoSan Justo1:41:18.3
9919945-49 MaleMedina, WalterPergamino1:41:56.7
1004530-34 MaleLopez Fournier, CesarPergamino1:42:04.6
1014740-44 MaleSqueo, SergioCaba1:42:21.7
1026145-49 MaleRoda, CarlosVilla Constitucion1:42:32.4
10320125-29 MaleCirigliano, AgustinSan Nicolas1:42:43.5
1048650-54 MaleGonzalez, AlejandroRosario1:42:44.9
10511140-44 MaleSpiatta, MarceloPergamino1:42:46.5
1066345-49 MaleMartinez, HernanRosario1:42:52.3
10724645-49 MaleAgullo, DanielVenado Tuerto1:42:55.5
10812830-34 MaleBerzzi, NicolasPergamino1:43:07.2
10918855-59 MaleBordon, CarlosPergamino1:43:15.2
11028140-44 MalePacasassi, OsvaldoSalto1:43:23.4
11120325-29 FemaleRodriguez, PaulaArrecifes1:43:23.7
1122445-49 MalePerez, Hector AdolfoSalto1:43:32.6
11311055-59 MaleBianco, Miguel AngelPergamino1:43:41.5
1143045-49 MaleBallestrasse, Carlos DiegoPergamino1:43:49.5
11524040-44 FemaleDora, LorenaRosario1:43:50.5
1164955-59 MaleMagdalena, Daniel ClaudioTemperley1:43:57.5
11714650-54 MaleFriguglietti, DiegoPergamino1:44:04.3
11811640-44 MaleMazzei, AlejandroPergamino1:44:09.2
11911560-64 MaleDiaz, EdgarPergamino1:44:36.1
12013230-34 MaleMesonero, MauricioPergamino1:44:51.7
12115020-24 FemaleBernard, BrendaPergamino1:44:58.1
1221120-24 MaleSosa, LuisPergamino1:45:21.6
1231350-54 MaleValentini, RobertoPergamino1:45:22.6
12416535-39 MaleAlvarez, HugoRojas1:45:26.5
1254055-59 MaleGiampieri, RubenPergamino1:45:51.2
1262840-44 MaleCaporalini, DanielPergamino1:45:54.1
12710735-39 FemaleAlonso, MarianaPergamino1:45:56.9
12827845-49 MaleTarulli, EduardoFighiera1:46:20.9
1298240-44 MalePaglialunga, Miguel AdrianFighiera1:46:21.2
13021560-64 MaleFlores Santos, HoracioVilla Cañas1:46:29.5
13120425-29 MaleStaempfli, DiegoCasilda1:46:32.1
13224225-29 FemaleHernandez, DeniseVicente Lopez1:46:46.8
13324120-24 MaleRojo, NicolasCvicente Lopez1:46:47.1
13410825-29 MaleMartinez, NicolasPergamino1:46:52.9
13520825-29 MaleFerreira, PabloPergamino1:46:53.0
1368445-49 MaleColatrilla, GuillermoArroyo Seco1:48:10.0
13730645-49 MalePonteprino, SergioJunin1:48:19.4
1381425-29 MaleCorrea, Oscar AlbertoVenado Tuerto1:48:24.5
13924540-44 MaleMartino, JavierLincoln1:48:32.7
14024435-39 FemaleBarnetche, IvanaLincoln1:48:32.7
1415635-39 MaleHarreguy, EnrriqueRosario1:48:38.6
14213155-59 MaleHerrera, JorgePergamino1:48:52.9
14322040-44 FemaleBrunengo, RosanaJunin1:49:03.0
1448945-49 MaleBeron, JoseCasilda1:49:06.7
14510240-44 MaleGarcia, DamianPergamino1:49:06.8
14614530-34 MaleBelluscio, DiegoPergamino1:49:09.8
14712320-24 MaleLopez Hiriart, AlejandroPergamino1:49:18.1
14824735-39 MaleRodriguez, Jose EnrriqueArrecifes1:49:34.2
1493535-39 MaleGonzalez, FelixPergamino1:49:35.8
15022150-54 MaleMantegazza, AldoSan Nicolas1:49:37.0
15129640-44 FemaleCarrazoni, SilvinaCarlos Casares1:49:40.1
152640-44 MaleAlbornoz, RaulSan Nicolas1:49:41.3
15315130-34 MaleCabrera, RamiroPergamino1:49:43.2
1548055-59 MaleRusso, JoseRosario1:49:49.9
15514845-49 FemaleSchneider, CarolinaPergamino1:49:54.2
15617335-39 FemaleCapdevila, SilvinaPergamino1:50:13.1
15713625-29 FemaleHulten, AnaPergamino1:50:13.2
1589630-34 MaleGarcia, CristianPergamino1:50:38.5
15915835-39 MaleAnnan, JosePergamino1:50:41.5
16018635-39 FemaleVillanueva, MarinaPergamino1:50:41.6
1617435-39 MaleMarin, LucianoCasilda1:50:46.3
16218325-29 MaleKriger, JonatanPergamino1:51:03.3
16311745-49 MalePrieto, CarlosPergamino1:51:22.1
16412550-54 MaleSarmiento, DanielPergamino1:51:27.6
16513840-44 MalePelichia, FlavioPergamino1:51:31.8
1663340-44 MaleBianco, RobertoPergamino1:51:31.8
16724350-54 MaleRivero, FelixSan Nicolas1:51:35.8
16818950-54 MalePellieri, CarlosPergamino1:51:39.3
16921760-64 MaleRabasa, CarlosVilla Cañas1:51:41.1
1705135-39 FemaleLloveras, RoxanaVilla Constitucion1:51:47.8
17120230-34 MaleGuevara, Juan PabloArequito1:51:54.1
1729730-34 MaleMaldonado, FernandoRosario1:51:58.9
1733740-44 FemaleGonzalez, RosaPergamino1:52:03.9
17410950-54 MalePalacio, VictorPergamino1:52:25.6
17510335-39 MaleCasenave, ArielPergamino1:52:33.2
1762145-49 MalePiergallini, RubenPergamino1:52:54.2
17713055-59 MaleMaturano, DanielPergamino1:53:08.5
1781525-29 MaleRiboldi, GermanSan Nicolas1:53:10.8
17925540-44 MalePugliese, LeonardoJunin1:53:17.1
18022360-64 MaleRatto, GasparJunin1:53:27.5
18119430-34 MaleCamardo, FedericoPergamino1:53:49.2
1826745-49 MaleCarrizo, CarlosRosario1:54:11.8
183955-59 MaleD´anna, MarioManuel Ocampo1:54:50.8
18425140-44 MaleMaglianesi, CarlosRamallo1:55:05.3
18511935-39 FemaleApesteguia, RominaPergamino1:55:06.0
18616730-34 MaleFresnes, SergioPergamino1:55:09.2
18714240-44 FemaleMartelli, ClaudiaSan Nicolas1:55:24.1
18814145-49 MaleMora, MarceloAcevedo1:55:24.2
1899255-59 MaleGuerra, ManuelSan Nicolas1:55:30.3
19015550-54 MaleFlorido, GerardoPergamino1:56:36.6
19118135-39 MalePeñalba, GabrielPergamino1:57:33.6
1922345-49 MaleMoreno, Jorge PabloCaba1:57:34.9
19318035-39 MalePeralta, LeonardoPergamino1:57:39.5
19414740-44 MaleLucero, MarceloPergamino1:58:15.4
1955235-39 FemaleLemos, SilviaAvellaneda1:58:40.8
19629445-49 MaleRivero, MarceloPergamino1:59:22.5
19716830-34 MaleSpitalieri, CarlosmPergamino1:59:23.0
19820525-29 MaleTomassi, PabloCasilda1:59:35.9
19918735-39 FemaleMedici, FlorenciaPergamino1:59:37.7
2005845-49 FemaleBarrios, FabianaVilla Constitucion1:59:44.5
20115440-44 MaleSalerno, DaríoPergamino2:00:01.8
20215640-44 MaleCarrasquera, EstebanPergamino2:00:08.2
20313945-49 MaleBarberis, SantiagoPergamino2:00:21.3
20417045-49 MaleSerafini, FernandoColon2:00:49.5
2052740-44 MaleGazenezzo, GabrielPergamino2:00:54.6
2061015-19 MaleGutierrez, LeonelPergamino2:01:34.9
2074450-54 MaleBalsells, Jorge OmarPergamino2:01:49.8
2086245-49 FemaleColussi, NanciRosario2:01:58.9
20925035-39 FemaleCastillo, VeronicaRamallo2:02:05.0
21026735-39 MaleAlbanas, GuillermoVenado Tuerto2:02:06.5
21121640-44 FemaleCenturion, IsabelJunin2:02:33.7
21228235-39 MaleFilleul, MarcosCaba2:02:55.8
2132225-29 MaleFunes, NicolasPergamino2:02:57.6
21415235-39 FemaleAndrade, AndreaPergamino2:02:58.3
21512245-49 FemaleVillata, Maria CristinaPergamino2:03:25.3
21630050-54 MalePerez, Carlos AlbertoSalto2:03:25.5
21722615-19 MaleCirigliano, JoseSan Nicolas2:03:28.9
21827940-44 FemaleCorvalan, MiriamFighiera2:05:24.1
21915345-49 MaleMartinez, JorgePergamino2:05:32.1
22029750-54 MaleSuarez, JosePergamino2:05:41.7
2217730-34 FemaleTravaglini, YaninaRosario2:05:57.1
2226845-49 MaleCampagnolo, OmarRosario2:06:05.6
22317725-29 MaleReichen, MatiasPergamino2:06:27.7
22423025-29 MaleRosset, AlvaroPergamino2:06:27.8
22511335-39 FemaleLeiva, MarianaColon2:06:48.1
22622830-34 MaleCabañes, HernanVenado Tuerto2:07:39.3
22728660-64 MaleBravo, RaulVenado Tuerto2:07:39.6
22813545-49 MalePulido, OscarPergamino2:07:46.3
22928755-59 FemalePeralta, AnaliaVenado Tuerto2:07:52.0
23029240-44 FemaleCasturino, Susana2:08:15.2
23114025-29 MaleBalestro, LeonardoPergamino2:08:28.0
23228325-29 FemaleBorsini, SolSan Justo2:08:51.4
2338830-34 FemaleMigueles, CarolinaRosario2:09:51.8
2345735-39 MaleNadalutti, GasparRosario2:09:52.0
23518555-59 MaleBatch, EdgardoPergamino2:10:03.9
23623830-34 FemaleLopez, MabelArroyo Seco2:10:34.3
23722765-69 MaleColombo, AlfredoBerazategui2:10:36.1
23829860-64 MaleLorenzetti, AlbertoRosario2:10:45.7
23911260-64 MaleMarsili, AntonioPergamino2:11:16.4
24010655-59 FemaleBalmaceda, GracielaPergamino2:11:24.7
24121260-64 MaleBertram, Juan CarlosVenado Tuerto2:11:39.0
24220050-54 MalePerez, TomasPergamino2:14:20.8
2435350-54 FemaleAguilanti, TeresaRosario2:14:30.4
24426045-49 MaleNieto, HectorRafael Castillo2:14:41.0
24525955-59 FemaleRobledo, DeliaEzeiza2:14:41.4
24615940-44 MaleLozada, RafaelPergamino2:17:48.5
2473425-29 FemaleSancho, JulianaPergamino2:18:42.9
24812035-39 FemaleBourda, LauraPergamino2:18:43.0
2491815-19 MaleLo Bianco, SantiagoPergamino2:18:44.7
25025865-69 MaleFernandez, EmilioEzeiza2:19:38.2
25115755-59 MaleBonacalza, AdolfoPergamino2:20:00.8
2522615-19 MaleMarlo, EugenioPergamino2:23:58.8
25330730-34 FemaleBarragan, NancyRosario2:24:06.3
2542950-54 MaleVillata, PedroPergamino2:25:10.6
25516260-64 MaleBellomo, CarlosmPergamino2:25:10.9
25617650-54 FemaleCassin, LilianaPergamino2:26:49.8
25730830-34 FemaleBrichi, RominaRosario2:27:05.5
2584145-49 MaleGalmes, HugoPergamino2:27:25.6
25919750-54 MaleEleonori, SergioPergamino2:29:18.9
2607040-44 MaleColla, CarlosGranadero Baigorria2:31:27.5
2616940-44 FemaleSepulveda, GracielaRosario2:31:27.7
26219040-44 FemaleMedina, ClaudiaPergamino2:32:13.9
26314945-49 FemaleJara Silva, MariaPergamino2:35:41.6
26426435-39 MalePelourson, AldoVenado Tuerto2:36:47.4
26526150-54 FemaleGomez, ElsaRafael Castillo2:37:57.8
26610565-69 FemaleGrubisic, MirtaPergamino2:43:42.9

Comentarios

Publicidades
107q, 0,745s